Location: Catacaguana
(10.4120°N, 66.7591°W)
Time: 04:08:41
(UTC+00:00)

Cosmos 1607 - Pass Details

Date: 27 May 2022
Orbit: 930 x 972 km, 65.0° (Epoch: 24 June)

Event Time Altitude Azimuth Distance (km) Brightness Sun altitude
Exits shadow 08:14:45 51° 201° (SSW) 1,197 4.1 -25.1°
Maximum altitude 08:16:32 90° 106° (ESE) 962 3.9 -24.8°
Drops below altitude 10° 08:22:47 10° 22° (NNE) 2,672 7.0 -23.4°
Sets 08:25:19 0° 22° (NNE) 3,610 7.8 -22.9°
